Weather History for Farmington, MO

Change the Weather History Date:

Friday, November 23, 2012

  Actual Average Record
Temperature  
Mean Temperature 42 °F -  
Max Temperature 55 °F 51 °F 68 °F (1998)
Min Temperature 28 °F 33 °F 17 °F (2013)
Degree Days  
Heating Degree Days 24    
Moisture  
Dew Point 27 °F    
Average Humidity 58    
Maximum Humidity 88    
Minimum Humidity 42    
Precipitation  
Precipitation 0.00 in - - ()
Sea Level Pressure  
Sea Level Pressure 30.26 in    
Wind  
Wind Speed 12 mph (NW)    
Max Wind Speed 20 mph    
Max Gust Speed 28 mph    
Visibility 10 miles    
Events      
Averages and records for this station are not official NWS values.
T = Trace of Precipitation, MM = Missing Value Source: NWS Daily Summary

Daily Weather History Graph

Daily Weather History Graph

Search for Another Location

Airport:

Trip Planner

Search our weather history database for the weather conditions in past years. The results will help you decide how hot, cold, wet, or windy it might be!

Date:

Astronomy

Nov. 23, 2012 Rise Set
Actual Time 6:50 AM CST 4:45 PM CST
Civil Twilight 6:22 AM CST 5:13 PM CST
Nautical Twilight 5:50 AM CST 5:46 PM CST
Astronomical Twilight 5:18 AM CST 6:17 PM CST
Moon 1:56 PM CST (11/23) 2:14 AM CST (11/23)
Length of Visible Light 10h 51m
Length of Day
9h 54m
Waxing Gibbous, 80% of the Moon is Illuminated
Nov 23
Waxing Gibbous
Nov 28
Full
Dec 6
Last Quarter
Dec 13
New
Dec 19
First Quarter

Hourly Weather History & Observations

Time (CST) Temp. Windchill Dew Point Humidity Pressure Visibility Wind Dir Wind Speed Gust Speed Precip Events Conditions
12:15 AM 55.4 °F - 51.8 °F 88% 30.09 in 10.0 mi West 10.4 mph 16.1 mph N/A   Overcast
12:55 AM 55.4 °F - 50.0 °F 82% 30.11 in 10.0 mi NW 17.3 mph 21.9 mph N/A   Mostly Cloudy
1:15 AM 53.6 °F - 46.4 °F 77% 30.13 in 10.0 mi NW 13.8 mph 24.2 mph N/A   Mostly Cloudy
1:35 AM 53.6 °F - 42.8 °F 67% 30.15 in 10.0 mi NW 12.7 mph 21.9 mph N/A   Mostly Cloudy
1:55 AM 51.8 °F - 37.4 °F 58% 30.16 in 10.0 mi NW 10.4 mph 18.4 mph N/A   Scattered Clouds
2:15 AM 48.2 °F - 35.6 °F 62% 30.17 in 10.0 mi NW 9.2 mph 20.7 mph N/A   Clear
2:35 AM 48.2 °F - 35.6 °F 62% 30.17 in 10.0 mi NW 11.5 mph 16.1 mph N/A   Clear
2:55 AM 48.2 °F - 35.6 °F 62% 30.18 in 10.0 mi NNW 10.4 mph 17.3 mph N/A   Clear
3:15 AM 46.4 °F 41.9 °F 35.6 °F 66% 30.19 in 10.0 mi NW 9.2 mph - N/A   Clear
3:35 AM 46.4 °F 40.7 °F 33.8 °F 62% 30.19 in 10.0 mi NNW 12.7 mph 19.6 mph N/A   Clear
3:55 AM 46.4 °F 41.9 °F 35.6 °F 66% 30.19 in 10.0 mi NW 9.2 mph - N/A   Scattered Clouds
4:15 AM 44.6 °F 39.2 °F 33.8 °F 66% 30.19 in 10.0 mi NW 10.4 mph - N/A   Scattered Clouds
4:35 AM 44.6 °F 40.2 °F 33.8 °F 66% 30.19 in 10.0 mi NW 8.1 mph - N/A   Clear
4:55 AM 42.8 °F 37.0 °F 33.8 °F 70% 30.20 in 10.0 mi NW 10.4 mph - N/A   Clear
5:15 AM 42.8 °F 37.5 °F 33.8 °F 70% 30.21 in 10.0 mi WNW 9.2 mph - N/A   Clear
5:35 AM 42.8 °F 36.6 °F 32.0 °F 66% 30.21 in 10.0 mi NW 11.5 mph 16.1 mph N/A   Clear
5:55 AM 42.8 °F 38.0 °F 30.2 °F 61% 30.21 in 10.0 mi WNW 8.1 mph - N/A   Clear
6:15 AM 41.0 °F 36.4 °F 30.2 °F 65% 30.21 in 10.0 mi WNW 6.9 mph - N/A   Clear
6:35 AM 39.2 °F 33.6 °F 30.2 °F 70% 30.21 in 10.0 mi West 8.1 mph - N/A   Clear
6:55 AM 39.2 °F 34.2 °F 30.2 °F 70% 30.22 in 10.0 mi West 6.9 mph - N/A   Clear
7:15 AM 39.2 °F 35.0 °F 30.2 °F 70% 30.22 in 10.0 mi West 5.8 mph - N/A   Clear
7:35 AM 39.2 °F 35.0 °F 32.0 °F 75% 30.23 in 10.0 mi West 5.8 mph - N/A   Clear
7:55 AM 42.8 °F 35.8 °F 32.0 °F 66% 30.24 in 10.0 mi WNW 13.8 mph 19.6 mph N/A   Clear
8:15 AM 44.6 °F 38.8 °F 30.2 °F 57% 30.25 in 10.0 mi WNW 11.5 mph 21.9 mph N/A   Clear
8:35 AM 44.6 °F 37.4 °F 32.0 °F 61% 30.25 in 10.0 mi WNW 16.1 mph 21.9 mph N/A   Clear
8:55 AM 44.6 °F 36.6 °F 28.4 °F 53% 30.26 in 10.0 mi WNW 19.6 mph 27.6 mph N/A   Clear
9:15 AM 44.6 °F 38.1 °F 30.2 °F 57% 30.27 in 10.0 mi NW 13.8 mph 20.7 mph N/A   Scattered Clouds
9:35 AM 44.6 °F 36.6 °F 30.2 °F 57% 30.27 in 10.0 mi NW 19.6 mph 27.6 mph N/A   Scattered Clouds
9:55 AM 44.6 °F 36.9 °F 30.2 °F 57% 30.29 in 10.0 mi NW 18.4 mph 23.0 mph N/A   Mostly Cloudy
10:15 AM 42.8 °F 35.8 °F 30.2 °F 61% 30.28 in 10.0 mi NW 13.8 mph 19.6 mph N/A   Overcast
10:35 AM 42.8 °F 35.8 °F 30.2 °F 61% 30.28 in 10.0 mi WNW 13.8 mph 20.7 mph N/A   Overcast
10:55 AM 42.8 °F 36.2 °F 30.2 °F 61% 30.29 in 10.0 mi WNW 12.7 mph 27.6 mph N/A   Overcast
11:15 AM 42.8 °F 34.5 °F 28.4 °F 57% 30.29 in 10.0 mi NW 18.4 mph 24.2 mph N/A   Overcast
11:35 AM 42.8 °F 34.8 °F 28.4 °F 57% 30.29 in 10.0 mi NW 17.3 mph 25.3 mph N/A   Overcast
11:55 AM 42.8 °F 36.2 °F 28.4 °F 57% 30.29 in 10.0 mi NW 12.7 mph 24.2 mph N/A   Overcast
12:15 PM 42.8 °F 35.8 °F 28.4 °F 57% 30.28 in 10.0 mi NW 13.8 mph 21.9 mph N/A   Overcast
12:35 PM 44.6 °F 37.8 °F 28.4 °F 53% 30.27 in 10.0 mi WNW 15.0 mph 18.4 mph N/A   Mostly Cloudy
12:55 PM 44.6 °F 37.8 °F 28.4 °F 53% 30.27 in 10.0 mi NW 15.0 mph 21.9 mph N/A   Clear
1:15 PM 44.6 °F 39.2 °F 26.6 °F 49% 30.27 in 10.0 mi WNW 10.4 mph 21.9 mph N/A   Clear
1:35 PM 44.6 °F 38.4 °F 28.4 °F 53% 30.27 in 10.0 mi NW 12.7 mph - N/A   Clear
1:55 PM 44.6 °F 38.1 °F 26.6 °F 49% 30.26 in 10.0 mi NW 13.8 mph 20.7 mph N/A   Clear
2:15 PM 44.6 °F 37.8 °F 24.8 °F 46% 30.27 in 10.0 mi NW 15.0 mph 24.2 mph N/A   Clear
2:35 PM 44.6 °F 37.4 °F 24.8 °F 46% 30.27 in 10.0 mi NW 16.1 mph 20.7 mph N/A   Clear
2:55 PM 44.6 °F 37.8 °F 24.8 °F 46% 30.27 in 10.0 mi WNW 15.0 mph 23.0 mph N/A   Clear
3:15 PM 44.6 °F 37.8 °F 24.8 °F 46% 30.28 in 10.0 mi NW 15.0 mph 24.2 mph N/A   Clear
3:35 PM 44.6 °F 38.1 °F 23.0 °F 43% 30.28 in 10.0 mi NW 13.8 mph 20.7 mph N/A   Clear
3:55 PM 42.8 °F 35.4 °F 21.2 °F 42% 30.29 in 10.0 mi NW 15.0 mph 23.0 mph N/A   Clear
4:15 PM 41.0 °F 33.9 °F 19.4 °F 42% 30.30 in 10.0 mi NW 12.7 mph 20.7 mph N/A   Clear
4:35 PM 39.2 °F 32.5 °F 17.6 °F 42% 30.30 in 10.0 mi NW 10.4 mph 18.4 mph N/A   Clear
4:55 PM 39.2 °F 31.6 °F 17.6 °F 42% 30.30 in 10.0 mi WNW 12.7 mph 17.3 mph N/A   Clear
5:15 PM 37.4 °F 29.8 °F 17.6 °F 45% 30.31 in 10.0 mi NW 11.5 mph - N/A   Clear
5:35 PM 37.4 °F 29.3 °F 17.6 °F 45% 30.32 in 10.0 mi WNW 12.7 mph 16.1 mph N/A   Clear
5:55 PM 37.4 °F 29.8 °F 19.4 °F 48% 30.32 in 10.0 mi NW 11.5 mph - N/A   Clear
6:15 PM 37.4 °F 30.3 °F 17.6 °F 45% 30.32 in 10.0 mi WNW 10.4 mph 19.6 mph N/A   Clear
6:35 PM 35.6 °F 28.0 °F 17.6 °F 48% 30.33 in 10.0 mi WNW 10.4 mph - N/A   Clear
6:55 PM 35.6 °F 27.1 °F 17.6 °F 48% 30.33 in 10.0 mi WNW 12.7 mph 17.3 mph N/A   Clear
7:15 PM 35.6 °F 28.0 °F 17.6 °F 48% 30.34 in 10.0 mi WNW 10.4 mph - N/A   Clear
7:35 PM 35.6 °F 28.6 °F 17.6 °F 48% 30.34 in 10.0 mi WNW 9.2 mph - N/A   Clear
7:55 PM 33.8 °F 27.0 °F 17.6 °F 52% 30.34 in 10.0 mi NW 8.1 mph - N/A   Clear
8:15 PM 33.8 °F 27.7 °F 17.6 °F 52% 30.34 in 10.0 mi NW 6.9 mph - N/A   Clear
8:35 PM 33.8 °F 26.4 °F 17.6 °F 52% 30.34 in 10.0 mi NW 9.2 mph - N/A   Clear
8:55 PM 33.8 °F 26.4 °F 17.6 °F 52% 30.34 in 10.0 mi NW 9.2 mph - N/A   Clear
9:15 PM 32.0 °F 23.6 °F 17.6 °F 55% 30.34 in 10.0 mi NW 10.4 mph 17.3 mph N/A   Clear
9:35 PM 32.0 °F 24.2 °F 17.6 °F 55% 30.34 in 10.0 mi NW 9.2 mph - N/A   Clear
9:55 PM 30.2 °F 20.8 °F 15.8 °F 55% 30.35 in 10.0 mi NW 11.5 mph - N/A   Clear
10:15 PM 30.2 °F 21.9 °F 17.6 °F 60% 30.34 in 10.0 mi NW 9.2 mph 17.3 mph N/A   Clear
10:35 PM 30.2 °F 21.9 °F 17.6 °F 60% 30.34 in 10.0 mi NW 9.2 mph 18.4 mph N/A   Clear
10:55 PM 30.2 °F 20.8 °F 17.6 °F 60% 30.34 in 10.0 mi NW 11.5 mph - N/A   Clear
11:15 PM 28.4 °F 19.1 °F 17.6 °F 64% 30.34 in 10.0 mi NW 10.4 mph - N/A   Clear
11:35 PM 28.4 °F 19.1 °F 17.6 °F 64% 30.34 in 10.0 mi NW 10.4 mph - N/A   Clear